When you browse on this site, cookies collect data to enhance your experience and personalize the content and advertising you see.
Visit our Privacy Policy to learn more. By continuing to use the site, you agree to this use of cookies and data.

Hourly Weather Duabo

Today, 9 August, Sunday

Time Temperature Precipitation Wind Pressure Humidity
00:00 +22°C° 0 mm 1 mps 743 mmHg 97%
01:00 +22°C° 0 mm 1 mps 742 mmHg 98%
02:00 +20°C° 0 mm 0 mps 742 mmHg 98%
03:00 +21°C° 0 mm 1 mps 742 mmHg 98%
04:00 +21°C° 0 mm 1 mps 742 mmHg 98%
05:00 +21°C° 0 mm 1 mps 742 mmHg 98%
06:00 +23°C° 0 mm 1 mps 743 mmHg 90%
07:00 +25°C° 0 mm 1 mps 743 mmHg 82%
08:00 +27°C° 0 mm 1 mps 744 mmHg 74%
09:00 +27°C° 0 mm 1 mps 744 mmHg 71%
10:00 +28°C° 0 mm 1 mps 744 mmHg 69%
11:00 +28°C° 0 mm 1 mps 744 mmHg 66%
12:00 +28°C° 0.1 mm 1 mps 743 mmHg 68%
13:00 +28°C° 0.1 mm 1 mps 742 mmHg 70%
14:00 +28°C° 0.1 mm 1 mps 742 mmHg 71%
15:00 +28°C° 0.1 mm 1 mps 742 mmHg 74%
16:00 +27°C° 0.1 mm 1 mps 741 mmHg 77%
17:00 +27°C° 0.1 mm 1 mps 741 mmHg 79%
18:00 +26°C° 0 mm 1 mps 742 mmHg 84%
19:00 +25°C° 0 mm 1 mps 742 mmHg 88%
20:00 +23°C° 0 mm 1 mps 742 mmHg 93%
21:00 +23°C° 0 mm 1 mps 742 mmHg 94%
22:00 +23°C° 0 mm 1 mps 742 mmHg 95%
23:00 +22°C° 0 mm 1 mps 743 mmHg 96%

Tomorrow, 10 August, Monday

Time Temperature Precipitation Wind Pressure Humidity
00:00 +22°C° 0 mm 1 mps 742 mmHg 96%
01:00 +22°C° 0 mm 1 mps 741 mmHg 97%
02:00 +21°C° 0 mm 1 mps 741 mmHg 97%
03:00 +21°C° 0 mm 1 mps 741 mmHg 97%
04:00 +19°C° 0 mm 0 mps 741 mmHg 98%
05:00 +19°C° 0 mm 0 mps 742 mmHg 98%
06:00 +20°C° 0 mm 0 mps 742 mmHg 92%
07:00 +22°C° 0 mm 0 mps 743 mmHg 86%
08:00 +23°C° 0 mm 0 mps 743 mmHg 80%
09:00 +26°C° 0 mm 1 mps 743 mmHg 75%
10:00 +28°C° 0 mm 1 mps 743 mmHg 69%
11:00 +29°C° 0 mm 1 mps 742 mmHg 63%
12:00 +29°C° 0 mm 1 mps 742 mmHg 63%
13:00 +29°C° 0 mm 2 mps 741 mmHg 62%
14:00 +30°C° 0 mm 2 mps 740 mmHg 62%
15:00 +29°C° 0 mm 2 mps 740 mmHg 67%
16:00 +28°C° 0 mm 2 mps 740 mmHg 72%
17:00 +27°C° 0 mm 2 mps 740 mmHg 77%
18:00 +26°C° 0 mm 2 mps 740 mmHg 81%
19:00 +25°C° 0 mm 2 mps 741 mmHg 85%
20:00 +24°C° 0 mm 2 mps 741 mmHg 89%
21:00 +24°C° 0 mm 2 mps 741 mmHg 90%
22:00 +24°C° 0 mm 2 mps 741 mmHg 91%
23:00 +23°C° 0 mm 2 mps 742 mmHg 92%

Day after tomorrow, 11 August, Tuesday

Time Temperature Precipitation Wind Pressure Humidity
00:00 +23°C° 0 mm 2 mps 741 mmHg 94%
01:00 +23°C° 0 mm 1 mps 741 mmHg 95%
02:00 +23°C° 0 mm 1 mps 740 mmHg 97%
03:00 +23°C° 0 mm 1 mps 741 mmHg 97%
04:00 +22°C° 0 mm 1 mps 741 mmHg 97%
05:00 +22°C° 0 mm 1 mps 741 mmHg 97%
06:00 +23°C° 0 mm 1 mps 741 mmHg 92%
07:00 +24°C° 0 mm 2 mps 742 mmHg 87%
08:00 +25°C° 0 mm 2 mps 743 mmHg 82%
09:00 +26°C° 0 mm 2 mps 742 mmHg 79%
10:00 +26°C° 0 mm 2 mps 742 mmHg 77%
11:00 +27°C° 0 mm 2 mps 742 mmHg 74%
12:00 +27°C° 0.1 mm 2 mps 742 mmHg 75%
13:00 +27°C° 0.1 mm 2 mps 741 mmHg 77%
14:00 +27°C° 0.1 mm 2 mps 741 mmHg 78%
15:00 +26°C° 0.2 mm 2 mps 741 mmHg 81%
16:00 +26°C° 0.2 mm 1 mps 741 mmHg 83%
17:00 +25°C° 0.2 mm 1 mps 740 mmHg 86%
18:00 +25°C° 0 mm 1 mps 741 mmHg 87%
19:00 +24°C° 0 mm 1 mps 741 mmHg 88%
20:00 +24°C° 0 mm 1 mps 742 mmHg 88%
21:00 +23°C° 0 mm 1 mps 742 mmHg 89%
22:00 +23°C° 0 mm 1 mps 742 mmHg 90%
23:00 +23°C° 0 mm 1 mps 742 mmHg 91%

12 August, Wednesday

Time Temperature Precipitation Wind Pressure Humidity
00:00 +23°C° 0 mm 1 mps 741 mmHg 91%
01:00 +23°C° 0 mm 1 mps 741 mmHg 91%
02:00 +22°C° 0 mm 1 mps 740 mmHg 92%
03:00 +23°C° 0 mm 1 mps 741 mmHg 92%
04:00 +23°C° 0 mm 1 mps 741 mmHg 91%
05:00 +23°C° 0 mm 1 mps 741 mmHg 91%
06:00 +23°C° 0 mm 1 mps 742 mmHg 87%
07:00 +24°C° 0 mm 1 mps 742 mmHg 83%
08:00 +25°C° 0 mm 2 mps 743 mmHg 78%
09:00 +26°C° 0 mm 2 mps 743 mmHg 76%
10:00 +26°C° 0 mm 2 mps 743 mmHg 74%
11:00 +27°C° 0 mm 2 mps 743 mmHg 72%
12:00 +27°C° 0 mm 2 mps 742 mmHg 72%
13:00 +27°C° 0 mm 2 mps 741 mmHg 72%
14:00 +27°C° 0 mm 2 mps 741 mmHg 73%
15:00 +26°C° 0 mm 2 mps 741 mmHg 75%
16:00 +26°C° 0 mm 2 mps 741 mmHg 77%
17:00 +25°C° 0 mm 1 mps 741 mmHg 79%
18:00 +25°C° 0 mm 1 mps 741 mmHg 81%
19:00 +24°C° 0 mm 1 mps 742 mmHg 83%
20:00 +24°C° 0 mm 1 mps 742 mmHg 85%
21:00 +23°C° 0 mm 1 mps 742 mmHg 87%
22:00 +23°C° 0 mm 1 mps 743 mmHg 88%
23:00 +21°C° 0 mm 0 mps 743 mmHg 90%

13 August, Thursday

Time Temperature Precipitation Wind Pressure Humidity
00:00 +22°C° 0 mm 1 mps 742 mmHg 91%
01:00 +22°C° 0 mm 1 mps 742 mmHg 92%
02:00 +22°C° 0 mm 1 mps 741 mmHg 93%
03:00 +21°C° 0 mm 1 mps 741 mmHg 94%
04:00 +21°C° 0 mm 1 mps 741 mmHg 95%
05:00 +19°C° 0 mm 0 mps 742 mmHg 97%
06:00 +22°C° 0 mm 1 mps 742 mmHg 89%
07:00 +24°C° 0 mm 1 mps 743 mmHg 81%
08:00 +26°C° 0 mm 1 mps 743 mmHg 73%
09:00 +27°C° 0 mm 1 mps 743 mmHg 70%
10:00 +27°C° 0 mm 1 mps 743 mmHg 66%
11:00 +28°C° 0 mm 1 mps 742 mmHg 63%
12:00 +29°C° 0 mm 1 mps 742 mmHg 63%
13:00 +29°C° 0 mm 1 mps 741 mmHg 62%
14:00 +29°C° 0 mm 1 mps 741 mmHg 62%
15:00 +28°C° 0 mm 1 mps 740 mmHg 67%
16:00 +27°C° 0 mm 1 mps 740 mmHg 72%
17:00 +26°C° 0 mm 1 mps 740 mmHg 76%
18:00 +25°C° 0 mm 1 mps 740 mmHg 80%
19:00 +24°C° 0 mm 1 mps 741 mmHg 84%
20:00 +23°C° 0 mm 1 mps 741 mmHg 88%
21:00 +22°C° 0 mm 1 mps 741 mmHg 89%
22:00 +22°C° 0 mm 1 mps 741 mmHg 91%
23:00 +21°C° 0 mm 1 mps 741 mmHg 92%

14 August, Friday

Time Temperature Precipitation Wind Pressure Humidity
00:00 +21°C° 0 mm 1 mps 741 mmHg 93%
01:00 +18°C° 0 mm 0 mps 741 mmHg 94%
02:00 +18°C° 0 mm 0 mps 740 mmHg 95%
03:00 +18°C° 0 mm 0 mps 740 mmHg 96%
04:00 +18°C° 0 mm 0 mps 741 mmHg 96%
05:00 +18°C° 0 mm 0 mps 741 mmHg 97%
06:00 +20°C° 0 mm 0 mps 741 mmHg 88%
07:00 +22°C° 0 mm 0 mps 742 mmHg 79%
08:00 +26°C° 0 mm 1 mps 743 mmHg 69%
09:00 +25°C° 0 mm 0 mps 742 mmHg 65%
10:00 +27°C° 0 mm 0 mps 742 mmHg 62%
11:00 +28°C° 0 mm 0 mps 742 mmHg 58%
12:00 +30°C° 0 mm 1 mps 741 mmHg 59%
13:00 +30°C° 0 mm 1 mps 740 mmHg 60%
14:00 +29°C° 0 mm 1 mps 740 mmHg 61%
15:00 +29°C° 0 mm 2 mps 739 mmHg 65%
16:00 +28°C° 0 mm 2 mps 739 mmHg 69%
17:00 +27°C° 0 mm 2 mps 739 mmHg 73%
18:00 +26°C° 0 mm 2 mps 740 mmHg 79%
19:00 +24°C° 0 mm 1 mps 740 mmHg 84%
20:00 +23°C° 0 mm 1 mps 741 mmHg 89%
21:00 +23°C° 0 mm 1 mps 741 mmHg 90%
22:00 +22°C° 0 mm 1 mps 741 mmHg 91%
23:00 +22°C° 0 mm 1 mps 741 mmHg 92%
Show more